Flag for Germany Weather past 2 weeks in Geldern, North Rhine-Westphalia, Germany

Now
64 °F

Clear.


Feels Like: 64 °F
Forecast: 62 / 74 °F
Wind: 6 mph from Southeast

Location: Niederrhein

Current Time: Aug 3, 2015 at 6:44:51 AM

Latest Report: Aug 3, 2015 at 5:50 AM


Visibility: 10 mi

Pressure: 29.98 "Hg

Humidity: 64%

Dew point: 52 °F

Location of GeldernLocation

Historic Weather in Geldern — Graph

°F

Geldern temperature yesterday

Maximum temperature yesterday: 79 °F (at 3:50 PM)
Minimum temperature yesterday: 50 °F (at 4:50 AM)
Average temperature yesterday: 69 °F

Past Weeks' High & Low Weather Summary

 TemperatureHumidityPressure
High79 °F (Jul 21, 2:20 PM)100% (Jul 19, 6:20 AM)30.15 "Hg (Jul 19, 6:20 AM)
Low45 °F (Jul 31, 5:20 AM)32% (Aug 2, 3:50 PM)29.47 "Hg (Jul 25, 6:20 AM)
Average64 °F69%29.88 "Hg
* Reported Jul 19 4:50 AM — Aug 3 4:50 AM, Geldern, Weather by CustomWeather, © 2015

Note: Actual official high and low records may vary slightly from our data, if they occured in-between our weather recording intervals... More about our weather records

Advertising

Geldern weather history for previous 24 hours

 ConditionsComfort  
Time TempWeatherWind HumidityBarometerVisibility
4:50 AM
Mon, Aug 3
64 °FClear.7 mph60%29.98 "Hg10 mi
11:50 PM
Sun, Aug 2
68 °FPassing clouds.6 mph46%30.04 "HgN/A
11:20 PM68 °FPassing clouds.5 mph46%30.04 "HgN/A
10:50 PM70 °FPassing clouds.5 mph43%30.04 "HgN/A
10:20 PM70 °FSunny.3 mph43%30.04 "Hg10 mi
9:50 PM72 °FSunny.2 mph44%30.04 "Hg10 mi
9:20 PM72 °FSunny.2 mph44%30.04 "Hg10 mi
8:50 PM75 °FSunny.2 mph39%30.04 "Hg10 mi
8:20 PM75 °FSunny.3 mph39%30.04 "Hg10 mi
7:50 PM77 °FSunny.5 mph39%30.04 "Hg10 mi
7:20 PM77 °FPassing clouds.5 mph36%30.07 "HgN/A
6:50 PM79 °FPassing clouds.5 mph34%30.07 "HgN/A
6:20 PM79 °FPassing clouds.7 mph34%30.07 "HgN/A
5:50 PM79 °FPassing clouds.7 mph34%30.07 "HgN/A
5:20 PM79 °FSunny.3 mph37%30.09 "Hg10 mi
4:50 PM79 °FPassing clouds.6 mph37%30.09 "HgN/A
4:20 PM79 °FPassing clouds.6 mph34%30.09 "HgN/A
3:50 PM79 °FSunny.3 mph32%30.09 "Hg10 mi
3:20 PM77 °FSunny.6 mph34%30.09 "Hg10 mi
2:50 PM77 °FSunny.2 mph34%30.12 "Hg10 mi
2:20 PM77 °FSunny.3 mph39%30.12 "Hg10 mi
1:50 PM75 °FSunny.3 mph39%30.12 "Hg10 mi
1:20 PM75 °FSunny.2 mph39%30.15 "Hg10 mi
12:50 PM75 °FSunny.3 mph41%30.15 "Hg10 mi
12:20 PM73 °FSunny.3 mph44%30.15 "Hg10 mi
11:50 AM73 °FSunny.3 mph44%30.15 "Hg10 mi
11:20 AM72 °FSunny.3 mph47%30.15 "Hg10 mi
10:50 AM72 °FSunny.2 mph50%30.15 "Hg10 mi
10:20 AM70 °FPassing clouds.5 mph57%30.15 "HgN/A
9:50 AM68 °FSunny.1 mph64%30.15 "Hg10 mi
9:20 AM66 °FSunny.1 mph60%30.15 "Hg10 mi
8:50 AM64 °FSunny.No wind68%30.12 "Hg10 mi
8:20 AM59 °FSunny.No wind77%30.12 "Hg10 mi
7:50 AM59 °FClear.No wind82%30.12 "Hg10 mi
7:20 AM52 °FClear.No wind94%30.12 "Hg10 mi
6:50 AM50 °FClear.No wind94%30.12 "Hg10 mi
6:20 AM50 °FClear.No wind94%30.09 "Hg10 mi
Weather by CustomWeather, © 2015

See weather overviewHow to use our weather pages